STARLINK-35388

Last updated on Tue Dec 16 2025 00:02:05 GMT+0000 (Coordinated Universal Time)

1 66466U 25262L 25349.21621790 .00050002 00000+0 11941-2 0 9990 2 66466 43.0005 57.0084 0001541 272.0068 88.0612 15.40759857 5946
UTC large
Height (km)
Speed (km/s)
/
Latitude / Longitude
Inclination (degrees)
Orbital Period (minutes)
Azimuth
Elevation
Range (km)
Doppler Factor

Next 0 passes for location: London (51.5072 / 0.1276)

Sorry there are no passes over London.